Universal City, TX

5:21 PM CDT on July 29, 2016 (GMT -0500)
Randolph Air Force Base

Weather History for KRND - November, 2011

Change the Weather History Date:

Monday, November 21, 2011

  Actual Average Record
Temperature  
Mean Temperature 74 °F -  
Max Temperature 80 °F 67 °F 86 °F (2007)
Min Temperature 69 °F 49 °F 32 °F (2006)
Cooling Degree Days 10    
Growing Degree Days 24 (Base 50)    
Moisture  
Dew Point 71 °F    
Average Humidity 88    
Maximum Humidity 100    
Minimum Humidity 70    
Precipitation  
Precipitation 0.03 in - - ()
Sea Level Pressure  
Sea Level Pressure 29.96 in    
Wind  
Wind Speed 9 mph (SE)    
Max Wind Speed 22 mph    
Max Gust Speed 31 mph    
Visibility 10 miles    
Events Rain    
Averages and records for this station are not official NWS values.
T = Trace of Precipitation, MM = Missing Value Source: NWS Daily Summary

Daily Weather History Graph

Daily Weather History Graph

Search for Another Location

Airport or City:

Trip Planner

Search our weather history database for the weather conditions in past years. The results will help you decide how hot, cold, wet, or windy it might be!

Date:

Astronomy

Nov. 21, 2011 Rise Set
Actual Time 7:02 AM CST 5:35 PM CST
Civil Twilight 6:36 AM CST 6:01 PM CST
Nautical Twilight 6:07 AM CST 6:30 PM CST
Astronomical Twilight 5:39 AM CST 6:58 PM CST
Moon 2:57 AM CST (11/21) 2:46 PM CST (11/21)
Length of Visible Light 11h 24m
Length of Day
10h 33m
Waning Crescent, 17% of the Moon is Illuminated
Nov 21
Waning Crescent
Nov 25
New
Dec 2
First Quarter
Dec 10
Full
Dec 17
Last Quarter

Hourly Weather History & Observations

Time (CST) Temp. Heat Index Dew Point Humidity Pressure Visibility Wind Dir Wind Speed Gust Speed Precip Events Conditions
12:14 AM 73.4 °F - 69.8 °F 88% 30.05 in 10.0 mi SSE 11.5 mph - N/A   Mostly Cloudy
12:55 AM 71.4 °F - 69.1 °F 92% 30.04 in 10.0 mi SSE 8.1 mph - N/A   Partly Cloudy
1:45 AM 69.8 °F - 69.8 °F 100% 30.04 in 10.0 mi SSE 4.6 mph - N/A   Mostly Cloudy
1:51 AM 69.8 °F - 69.8 °F 100% 30.04 in 10.0 mi SSE 4.6 mph - N/A   Mostly Cloudy
1:55 AM 70.2 °F - 69.4 °F 98% 30.04 in 10.0 mi SSE 4.6 mph - N/A   Mostly Cloudy
1:57 AM 69.8 °F - 69.8 °F 100% 30.04 in 10.0 mi SSE 3.5 mph - N/A   Mostly Cloudy
2:21 AM 69.8 °F - 69.8 °F 100% 30.04 in 10.0 mi ESE 5.8 mph - N/A   Mostly Cloudy
2:24 AM 69.8 °F - 69.8 °F 100% 30.04 in 10.0 mi ESE 4.6 mph - N/A   Mostly Cloudy
2:25 AM 69.8 °F - 69.8 °F 100% 30.04 in 10.0 mi ESE 4.6 mph - N/A   Mostly Cloudy
2:30 AM 69.8 °F - 69.8 °F 100% 30.04 in 10.0 mi East 5.8 mph - N/A   Mostly Cloudy
2:36 AM 69.8 °F - 69.8 °F 100% 30.03 in 10.0 mi East 5.8 mph - N/A   Mostly Cloudy
2:37 AM 69.8 °F - 69.8 °F 100% 30.03 in 10.0 mi East 5.8 mph - N/A   Mostly Cloudy
2:41 AM 69.8 °F - 69.8 °F 100% 30.03 in 10.0 mi East 5.8 mph - N/A   Mostly Cloudy
2:43 AM 71.6 °F - 69.8 °F 94% 30.03 in 10.0 mi East 5.8 mph - N/A   Mostly Cloudy
2:52 AM 69.8 °F - 69.8 °F 100% 30.03 in 10.0 mi East 4.6 mph - N/A   Mostly Cloudy
2:54 AM 69.8 °F - 69.8 °F 100% 30.03 in 10.0 mi East 4.6 mph - N/A   Mostly Cloudy
2:57 AM 69.8 °F - 69.8 °F 100% 30.03 in 10.0 mi East 3.5 mph - N/A   Mostly Cloudy
2:59 AM 69.8 °F - 69.8 °F 100% 30.03 in 10.0 mi East 3.5 mph - N/A   Mostly Cloudy
3:02 AM 69.8 °F - 69.8 °F 100% 30.03 in 10.0 mi East 3.5 mph - N/A   Mostly Cloudy
3:09 AM 69.8 °F - 69.8 °F 100% 30.03 in 10.0 mi Calm Calm - N/A   Mostly Cloudy
3:55 AM 70.7 °F - 70.3 °F 99% 30.03 in 10.0 mi NE 3.5 mph - N/A   Overcast
4:09 AM 71.6 °F - 69.8 °F 94% 30.03 in 10.0 mi ENE 3.5 mph - N/A   Overcast
4:17 AM 71.6 °F - 69.8 °F 94% 30.03 in 10.0 mi East 4.6 mph - N/A   Overcast
4:55 AM 70.9 °F - 70.5 °F 99% 30.02 in 10.0 mi ESE 4.6 mph - N/A   Overcast
5:08 AM 71.6 °F - 71.6 °F 100% 30.02 in 10.0 mi SE 5.8 mph - N/A   Overcast
5:09 AM 71.6 °F - 71.6 °F 100% 30.02 in 10.0 mi SE 5.8 mph - N/A   Overcast
5:14 AM 71.6 °F - 71.6 °F 100% 30.02 in 10.0 mi SE 4.6 mph - N/A   Overcast
5:17 AM 71.6 °F - 71.6 °F 100% 30.02 in 10.0 mi SE 4.6 mph - N/A   Overcast
5:55 AM 71.4 °F - 71.1 °F 99% 30.02 in 10.0 mi ESE 5.8 mph - N/A   Overcast
6:20 AM 71.6 °F - 71.6 °F 100% 30.03 in 10.0 mi ESE 4.6 mph - N/A   Overcast
6:25 AM 71.6 °F - 71.6 °F 100% 30.03 in 10.0 mi ESE 4.6 mph - N/A   Overcast
6:26 AM 71.6 °F - 71.6 °F 100% 30.03 in 10.0 mi ESE 4.6 mph - N/A   Overcast
6:55 AM 72.3 °F - 72.0 °F 99% 30.03 in 10.0 mi SE 9.2 mph - N/A   Overcast
7:41 AM 71.6 °F - 71.6 °F 100% 30.05 in 10.0 mi SE 4.6 mph - N/A   Mostly Cloudy
7:44 AM 71.6 °F - 71.6 °F 100% 30.05 in 10.0 mi SE 4.6 mph - N/A   Light Drizzle
7:55 AM 72.5 °F - 72.3 °F 99% 30.05 in 10.0 mi SSE 5.8 mph - 0.00 in   Overcast
8:55 AM 73.8 °F - 72.1 °F 95% 30.05 in 10.0 mi SE 9.2 mph - N/A   Overcast
9:07 AM 73.4 °F - 71.6 °F 94% 30.05 in 10.0 mi SE 9.2 mph - N/A   Overcast
9:11 AM 73.4 °F - 71.6 °F 94% 30.06 in 10.0 mi SE 9.2 mph - N/A   Light Drizzle
9:23 AM 75.2 °F - 71.6 °F 89% 30.06 in 10.0 mi SE 10.4 mph - N/A   Overcast
9:29 AM 73.4 °F - 71.6 °F 94% 30.06 in 10.0 mi SE 10.4 mph - N/A   Overcast
9:40 AM 75.2 °F - 71.6 °F 89% 30.05 in 10.0 mi SSE 10.4 mph - N/A   Overcast
9:55 AM 75.4 °F - 72.0 °F 89% 30.05 in 10.0 mi SSE 13.8 mph - 0.00 in   Overcast
10:06 AM 75.2 °F - 71.6 °F 89% 30.06 in 3.0 mi SSE 11.5 mph - N/A Rain Light Rain Showers
10:09 AM 75.2 °F - 71.6 °F 89% 30.05 in 3.0 mi SSE 10.4 mph - N/A Rain Rain
10:20 AM 73.4 °F - 73.4 °F 100% 30.04 in 6.0 mi SSE 11.5 mph - N/A Rain Light Rain
10:23 AM 75.2 °F - 73.4 °F 94% 30.04 in 10.0 mi SSE 11.5 mph - N/A   Overcast
10:38 AM 75.2 °F - 73.4 °F 94% 30.03 in 10.0 mi SSE 10.4 mph - N/A   Overcast
10:55 AM 75.6 °F - 72.9 °F 91% 30.02 in 10.0 mi SSE 15.0 mph - 0.02 in   Overcast
11:46 AM 77.0 °F - 71.6 °F 83% 29.99 in 10.0 mi SSE 18.4 mph 24.2 mph N/A   Overcast
11:55 AM 76.8 °F - 71.6 °F 84% 29.98 in 10.0 mi SSE 17.3 mph - N/A   Overcast
12:55 PM 77.4 °F - 71.2 °F 81% 29.95 in 10.0 mi SSE 18.4 mph 25.3 mph N/A   Overcast
1:06 PM 77.0 °F - 71.6 °F 83% 29.96 in 2.0 mi SSE 17.3 mph 21.9 mph N/A Rain Light Rain Showers
1:17 PM 75.2 °F - 73.4 °F 94% 29.95 in 2.0 mi SSE 13.8 mph - N/A   Light Drizzle
1:22 PM 75.2 °F - 73.4 °F 94% 29.96 in 4.0 mi South 11.5 mph - N/A   Light Drizzle
1:27 PM 75.2 °F - 73.4 °F 94% 29.94 in 10.0 mi SSE 12.7 mph - N/A   Overcast
1:31 PM 75.2 °F - 73.4 °F 94% 29.95 in 10.0 mi SSE 15.0 mph - N/A   Overcast
1:55 PM 77.4 °F - 72.9 °F 86% 29.92 in 10.0 mi SSE 15.0 mph - 0.01 in   Mostly Cloudy
2:07 PM 77.0 °F - 71.6 °F 83% 29.92 in 10.0 mi SSE 11.5 mph - N/A   Overcast
2:13 PM 77.0 °F - 71.6 °F 83% 29.92 in 10.0 mi SSE 11.5 mph - N/A   Overcast
2:15 PM 78.8 °F - 71.6 °F 78% 29.92 in 10.0 mi SSE 11.5 mph - N/A   Mostly Cloudy
2:16 PM 78.8 °F - 71.6 °F 78% 29.92 in 10.0 mi SSE 11.5 mph - N/A   Mostly Cloudy
2:26 PM 78.8 °F - 71.6 °F 78% 29.91 in 10.0 mi SSE 16.1 mph - N/A   Overcast
2:28 PM 78.8 °F - 71.6 °F 78% 29.91 in 10.0 mi SSE 13.8 mph - N/A   Overcast
2:29 PM 78.8 °F - 71.6 °F 78% 29.91 in 10.0 mi SSE 12.7 mph - N/A   Overcast
2:35 PM 78.8 °F - 71.6 °F 78% 29.91 in 10.0 mi SSE 13.8 mph 19.6 mph N/A   Overcast
2:40 PM 78.8 °F - 71.6 °F 78% 29.90 in 10.0 mi South 16.1 mph 19.6 mph N/A   Overcast
2:41 PM 78.8 °F - 71.6 °F 78% 29.90 in 10.0 mi South 17.3 mph - N/A   Overcast
2:45 PM 78.8 °F - 71.6 °F 78% 29.89 in 10.0 mi SSE 16.1 mph - N/A   Overcast
2:47 PM 78.8 °F - 71.6 °F 78% 29.89 in 10.0 mi SSE 15.0 mph - N/A   Overcast
2:48 PM 78.8 °F - 71.6 °F 78% 29.89 in 10.0 mi SSE 15.0 mph - N/A   Overcast
2:49 PM 78.8 °F - 71.6 °F 78% 29.88 in 10.0 mi SSE 16.1 mph - N/A   Overcast
2:55 PM 80.1 °F 83.6 °F 71.1 °F 74% 29.87 in 10.0 mi SSE 19.6 mph - N/A   Overcast
2:57 PM 80.6 °F 84.6 °F 71.6 °F 74% 29.87 in 10.0 mi SSE 20.7 mph 26.5 mph N/A   Overcast
3:50 PM 80.6 °F 83.9 °F 69.8 °F 70% 29.85 in 10.0 mi SSE 21.9 mph - N/A   Mostly Cloudy
3:55 PM 79.5 °F - 70.5 °F 74% 29.85 in 10.0 mi SSE 15.0 mph 26.5 mph N/A   Mostly Cloudy
3:57 PM 78.8 °F - 69.8 °F 74% 29.85 in 10.0 mi SSE 17.3 mph - N/A   Mostly Cloudy
3:58 PM 78.8 °F - 69.8 °F 74% 29.85 in 10.0 mi SSE 17.3 mph - N/A   Mostly Cloudy
4:09 PM 80.6 °F 83.9 °F 69.8 °F 70% 29.84 in 10.0 mi SSE 20.7 mph 27.6 mph N/A   Scattered Clouds
4:13 PM 78.8 °F - 69.8 °F 74% 29.84 in 10.0 mi SSE 21.9 mph 27.6 mph N/A   Mostly Cloudy
4:18 PM 78.8 °F - 69.8 °F 74% 29.84 in 10.0 mi SE 19.6 mph - N/A   Scattered Clouds
4:30 PM 78.8 °F - 69.8 °F 74% 29.84 in 10.0 mi SSE 19.6 mph 25.3 mph N/A   Mostly Cloudy
4:32 PM 78.8 °F - 69.8 °F 74% 29.84 in 10.0 mi SSE 21.9 mph - N/A   Mostly Cloudy
4:55 PM 78.6 °F - 69.6 °F 74% 29.83 in 10.0 mi SE 19.6 mph - N/A   Overcast
5:29 PM 77.0 °F - 69.8 °F 78% 29.81 in 10.0 mi SE 18.4 mph 31.1 mph N/A   Mostly Cloudy
5:55 PM 76.8 °F - 69.6 °F 78% 29.82 in 10.0 mi SSE 16.1 mph 26.5 mph N/A   Scattered Clouds
5:57 PM 77.0 °F - 69.8 °F 78% 29.82 in 10.0 mi SSE 17.3 mph - N/A   Mostly Cloudy
6:04 PM 77.0 °F - 69.8 °F 78% 29.83 in 10.0 mi SSE 19.6 mph 27.6 mph N/A   Mostly Cloudy
6:34 PM 77.0 °F - 69.8 °F 78% 29.86 in 10.0 mi South 13.8 mph - N/A   Overcast
6:55 PM 76.5 °F - 69.8 °F 80% 29.86 in 10.0 mi South 18.4 mph 23.0 mph N/A   Overcast
7:26 PM 77.0 °F - 69.8 °F 78% 29.88 in 10.0 mi South 13.8 mph - N/A   Overcast
7:55 PM 76.3 °F - 70.2 °F 81% 29.89 in 10.0 mi SSE 11.5 mph - N/A   Overcast
8:02 PM 75.2 °F - 69.8 °F 83% 29.90 in 10.0 mi South 13.8 mph - N/A   Overcast
8:07 PM 75.2 °F - 69.8 °F 83% 29.90 in 10.0 mi South 12.7 mph - N/A   Overcast
8:13 PM 75.2 °F - 69.8 °F 83% 29.89 in 10.0 mi SSE 13.8 mph - N/A   Overcast
8:55 PM 75.6 °F - 70.2 °F 83% 29.91 in 10.0 mi SSE 13.8 mph - N/A   Overcast
9:25 PM 75.2 °F - 69.8 °F 83% 29.93 in 10.0 mi SSE 9.2 mph - N/A   Overcast
9:27 PM 75.2 °F - 69.8 °F 83% 29.93 in 10.0 mi SSE 9.2 mph - N/A   Overcast
9:29 PM 75.2 °F - 69.8 °F 83% 29.93 in 10.0 mi SSE 8.1 mph - N/A   Overcast
9:31 PM 75.2 °F - 69.8 °F 83% 29.93 in 10.0 mi SSE 8.1 mph - N/A   Light Drizzle
9:34 PM 75.2 °F - 69.8 °F 83% 29.93 in 10.0 mi SSE 8.1 mph - N/A   Light Drizzle
9:36 PM 75.2 °F - 69.8 °F 83% 29.93 in 10.0 mi SSE 8.1 mph - N/A   Light Drizzle
9:38 PM 75.2 °F - 69.8 °F 83% 29.93 in 10.0 mi SSE 8.1 mph - N/A   Light Drizzle
9:40 PM 75.2 °F - 69.8 °F 83% 29.93 in 10.0 mi SSE 8.1 mph - N/A   Light Drizzle
9:50 PM 73.4 °F - 69.8 °F 88% 29.93 in 10.0 mi SSE 10.4 mph - N/A   Overcast
9:54 PM 73.4 °F - 71.6 °F 94% 29.93 in 10.0 mi SSE 10.4 mph - N/A   Overcast
10:55 PM 74.1 °F - 70.2 °F 87% 29.92 in 10.0 mi SSE 10.4 mph - N/A   Overcast
11:31 PM 75.2 °F - 69.8 °F 83% 29.92 in 10.0 mi SSE 8.1 mph - N/A   Overcast
11:38 PM 73.4 °F - 69.8 °F 88% 29.92 in 10.0 mi SSE 6.9 mph - N/A   Overcast
11:39 PM 73.4 °F - 69.8 °F 88% 29.92 in 10.0 mi SSE 6.9 mph - N/A   Overcast
11:46 PM 73.4 °F - 69.8 °F 88% 29.92 in 10.0 mi SSE 5.8 mph - N/A   Overcast
11:53 PM 73.4 °F - 69.8 °F 88% 29.92 in 10.0 mi SSE 5.8 mph - N/A   Overcast
11:55 PM 73.8 °F - 70.0 °F 88% 29.92 in 10.0 mi SSE 5.8 mph - N/A   Overcast